• în România
  • Lista ţărilor
  • Pe 7 zile
  • Temperatura apei
  • Hartă satelitară
  • Meteo pe hartă
  • Widget-uri
  • user-avatar
    Intrare

    Meteo pe oră la Novoselok

    Astăzi, 13 Noiembrie, Marţi

    Timp Temperatura Precipitaţii Vânt Presiune Umiditate
    00:00 -8°C° 0 mm 3 m/s 771 mmHg 31%
    01:00 -8°C° 0 mm 3 m/s 771 mmHg 32%
    02:00 -8°C° 0 mm 3 m/s 771 mmHg 32%
    03:00 -9°C° 0 mm 3 m/s 771 mmHg 33%
    04:00 -9°C° 0 mm 3 m/s 771 mmHg 33%
    05:00 -9°C° 0 mm 3 m/s 771 mmHg 34%
    06:00 -9°C° 0 mm 3 m/s 771 mmHg 34%
    07:00 -9°C° 0 mm 3 m/s 771 mmHg 33%
    08:00 -9°C° 0 mm 4 m/s 771 mmHg 32%
    09:00 -9°C° 0 mm 4 m/s 771 mmHg 30%
    10:00 -8°C° 0 mm 4 m/s 771 mmHg 27%
    11:00 -7°C° 0 mm 4 m/s 770 mmHg 25%
    12:00 -5°C° 0 mm 4 m/s 770 mmHg 23%
    13:00 -5°C° 0 mm 4 m/s 770 mmHg 23%
    14:00 -4°C° 0 mm 4 m/s 769 mmHg 22%
    15:00 -4°C° 0 mm 4 m/s 769 mmHg 22%
    16:00 -5°C° 0 mm 3 m/s 769 mmHg 24%
    17:00 -6°C° 0 mm 3 m/s 769 mmHg 27%
    18:00 -6°C° 0 mm 3 m/s 769 mmHg 29%
    19:00 -7°C° 0 mm 3 m/s 768 mmHg 29%
    20:00 -7°C° 0 mm 3 m/s 768 mmHg 30%
    21:00 -7°C° 0 mm 3 m/s 768 mmHg 31%
    22:00 -7°C° 0 mm 3 m/s 768 mmHg 32%
    23:00 -8°C° 0 mm 3 m/s 767 mmHg 32%

    Mâine, 14 Noiembrie, Miercuri

    Timp Temperatura Precipitaţii Vânt Presiune Umiditate
    00:00 -8°C° 0 mm 3 m/s 767 mmHg 33%
    01:00 -8°C° 0 mm 3 m/s 767 mmHg 34%
    02:00 -8°C° 0 mm 3 m/s 766 mmHg 34%
    03:00 -8°C° 0 mm 3 m/s 766 mmHg 35%
    04:00 -9°C° 0 mm 3 m/s 766 mmHg 35%
    05:00 -9°C° 0 mm 3 m/s 765 mmHg 36%
    06:00 -9°C° 0 mm 3 m/s 765 mmHg 36%
    07:00 -8°C° 0 mm 3 m/s 765 mmHg 35%
    08:00 -9°C° 0 mm 4 m/s 764 mmHg 35%
    09:00 -9°C° 0 mm 4 m/s 764 mmHg 34%
    10:00 -8°C° 0 mm 4 m/s 764 mmHg 34%
    11:00 -5°C° 0 mm 4 m/s 764 mmHg 34%
    12:00 -4°C° 0 mm 4 m/s 763 mmHg 34%
    13:00 -4°C° 0 mm 4 m/s 763 mmHg 37%
    14:00 -3°C° 0 mm 4 m/s 763 mmHg 39%
    15:00 -3°C° 0 mm 4 m/s 762 mmHg 42%
    16:00 -4°C° 0 mm 4 m/s 762 mmHg 45%
    17:00 -4°C° 0 mm 4 m/s 762 mmHg 49%
    18:00 -5°C° 0 mm 3 m/s 762 mmHg 53%
    19:00 -5°C° 0 mm 3 m/s 762 mmHg 52%
    20:00 -5°C° 0 mm 3 m/s 762 mmHg 51%
    21:00 -5°C° 0 mm 4 m/s 762 mmHg 51%
    22:00 -5°C° 0 mm 3 m/s 762 mmHg 49%
    23:00 -6°C° 0 mm 3 m/s 762 mmHg 47%

    Poimâine, 15 Noiembrie, Joi

    Timp Temperatura Precipitaţii Vânt Presiune Umiditate
    00:00 -6°C° 0 mm 3 m/s 762 mmHg 44%
    01:00 -6°C° 0 mm 3 m/s 762 mmHg 43%
    02:00 -6°C° 0 mm 3 m/s 762 mmHg 41%
    03:00 -6°C° 0 mm 3 m/s 762 mmHg 39%
    04:00 -6°C° 0 mm 3 m/s 763 mmHg 38%
    05:00 -7°C° 0 mm 3 m/s 763 mmHg 38%
    06:00 -7°C° 0 mm 3 m/s 763 mmHg 37%
    07:00 -6°C° 0 mm 3 m/s 763 mmHg 34%
    08:00 -6°C° 0 mm 3 m/s 763 mmHg 32%
    09:00 -6°C° 0 mm 3 m/s 764 mmHg 30%
    10:00 -5°C° 0 mm 3 m/s 764 mmHg 28%
    11:00 -4°C° 0 mm 3 m/s 764 mmHg 26%
    12:00 -2°C° 0 mm 3 m/s 764 mmHg 23%
    13:00 -2°C° 0 mm 3 m/s 764 mmHg 24%
    14:00 -1°C° 0 mm 3 m/s 764 mmHg 24%
    15:00 -1°C° 0 mm 3 m/s 764 mmHg 24%
    16:00 -2°C° 0 mm 3 m/s 764 mmHg 27%
    17:00 -4°C° 0 mm 3 m/s 764 mmHg 29%
    18:00 -5°C° 0 mm 3 m/s 764 mmHg 31%
    19:00 -5°C° 0 mm 3 m/s 765 mmHg 32%
    20:00 -5°C° 0 mm 3 m/s 765 mmHg 32%
    21:00 -5°C° 0 mm 3 m/s 765 mmHg 33%
    22:00 -5°C° 0 mm 3 m/s 765 mmHg 33%
    23:00 -5°C° 0 mm 2 m/s 765 mmHg 34%

    16 Noiembrie, Vineri

    Timp Temperatura Precipitaţii Vânt Presiune Umiditate
    00:00 -5°C° 0 mm 2 m/s 766 mmHg 34%
    01:00 -5°C° 0 mm 2 m/s 766 mmHg 34%
    02:00 -5°C° 0 mm 2 m/s 766 mmHg 34%
    03:00 -5°C° 0 mm 2 m/s 766 mmHg 34%
    04:00 -5°C° 0 mm 2 m/s 766 mmHg 34%
    05:00 -6°C° 0 mm 3 m/s 766 mmHg 33%
    06:00 -6°C° 0 mm 3 m/s 766 mmHg 33%
    07:00 -6°C° 0 mm 3 m/s 766 mmHg 32%
    08:00 -6°C° 0 mm 3 m/s 767 mmHg 30%
    09:00 -5°C° 0 mm 3 m/s 767 mmHg 29%
    10:00 -4°C° 0 mm 3 m/s 767 mmHg 27%
    11:00 -2°C° 0 mm 3 m/s 767 mmHg 25%
    12:00 -1°C° 0 mm 3 m/s 767 mmHg 23%
    13:00 -1°C° 0 mm 3 m/s 767 mmHg 24%
    14:00 -1°C° 0 mm 3 m/s 767 mmHg 25%
    15:00 -1°C° 0 mm 3 m/s 766 mmHg 26%
    16:00 -2°C° 0 mm 3 m/s 766 mmHg 27%
    17:00 -2°C° 0 mm 3 m/s 766 mmHg 29%
    18:00 -4°C° 0 mm 3 m/s 766 mmHg 31%
    19:00 -4°C° 0 mm 3 m/s 766 mmHg 30%
    20:00 -5°C° 0 mm 3 m/s 766 mmHg 29%
    21:00 -4°C° 0 mm 2 m/s 766 mmHg 29%
    22:00 -4°C° 0 mm 2 m/s 766 mmHg 28%
    23:00 -4°C° 0 mm 2 m/s 766 mmHg 27%

    17 Noiembrie, Sâmbătă

    Timp Temperatura Precipitaţii Vânt Presiune Umiditate
    00:00 -4°C° 0 mm 2 m/s 766 mmHg 26%
    01:00 -4°C° 0 mm 2 m/s 766 mmHg 26%
    02:00 -4°C° 0 mm 2 m/s 765 mmHg 25%
    03:00 -5°C° 0 mm 2 m/s 765 mmHg 24%
    04:00 -5°C° 0 mm 2 m/s 765 mmHg 24%
    05:00 -5°C° 0 mm 2 m/s 765 mmHg 23%
    06:00 -5°C° 0 mm 2 m/s 765 mmHg 23%
    07:00 -5°C° 0 mm 2 m/s 764 mmHg 22%
    08:00 -4°C° 0 mm 2 m/s 764 mmHg 21%
    09:00 -4°C° 0 mm 2 m/s 764 mmHg 20%
    10:00 -1°C° 0 mm 1 m/s 764 mmHg 19%
    11:00 0°C° 0 mm 1 m/s 763 mmHg 17%
    12:00 +1°C° 0 mm 1 m/s 763 mmHg 15%
    13:00 +1°C° 0 mm 1 m/s 762 mmHg 17%
    14:00 +1°C° 0 mm 1 m/s 762 mmHg 18%
    15:00 +1°C° 0 mm 1 m/s 761 mmHg 20%
    16:00 0°C° 0 mm 1 m/s 761 mmHg 21%
    17:00 0°C° 0 mm 1 m/s 760 mmHg 21%
    18:00 -1°C° 0 mm 1 m/s 760 mmHg 22%
    19:00 -1°C° 0 mm 1 m/s 759 mmHg 22%
    20:00 -1°C° 0 mm 1 m/s 759 mmHg 22%
    21:00 -2°C° 0 mm 1 m/s 758 mmHg 22%
    22:00 -2°C° 0 mm 1 m/s 758 mmHg 22%
    23:00 -2°C° 0 mm 1 m/s 757 mmHg 22%

    18 Noiembrie, Duminică

    Timp Temperatura Precipitaţii Vânt Presiune Umiditate
    00:00 -4°C° 0 mm 2 m/s 757 mmHg 22%
    01:00 -4°C° 0 mm 2 m/s 756 mmHg 23%
    02:00 -4°C° 0 mm 2 m/s 756 mmHg 23%
    03:00 -5°C° 0 mm 2 m/s 755 mmHg 23%
    04:00 -5°C° 0 mm 2 m/s 754 mmHg 23%
    05:00 -5°C° 0 mm 2 m/s 754 mmHg 24%
    06:00 -5°C° 0 mm 2 m/s 753 mmHg 24%
    07:00 -5°C° 0 mm 2 m/s 753 mmHg 24%
    08:00 -4°C° 0 mm 2 m/s 752 mmHg 23%
    09:00 -4°C° 0 mm 2 m/s 752 mmHg 23%
    10:00 -4°C° 0 mm 3 m/s 752 mmHg 22%
    11:00 -2°C° 0 mm 3 m/s 752 mmHg 21%
    12:00 -1°C° 0 mm 3 m/s 751 mmHg 19%
    13:00 -1°C° 0 mm 3 m/s 751 mmHg 21%
    14:00 -1°C° 0 mm 3 m/s 751 mmHg 23%
    15:00 -1°C° 0 mm 2 m/s 751 mmHg 24%
    16:00 -1°C° 0 mm 2 m/s 751 mmHg 27%
    17:00 -2°C° 0 mm 2 m/s 752 mmHg 29%
    18:00 -2°C° 0 mm 2 m/s 752 mmHg 31%
    19:00 -3°C° 0 mm 2 m/s 752 mmHg 32%
    20:00 -3°C° 0 mm 2 m/s 752 mmHg 33%
    21:00 -3°C° 0 mm 2 m/s 752 mmHg 34%
    22:00 -3°C° 0 mm 2 m/s 753 mmHg 35%
    23:00 -3°C° 0 mm 2 m/s 753 mmHg 35%
    Arată mai mult